[[{"header":{"parameterUnit":"m.s-1","parameterCategory":1,"la1":30.2991,"la2":30.254,"lo1":-89.0895,"lo2":-89.0444,"dy":0.0017,"dx":0.0017,"nx":28,"ny":28,"refTime":"2024-07-13T03:00:00:Z","depth":0,"parameterNumber":2,"parameterNumberName":"U-component_of_WINDS"},"data":[0,0,0,0,0,0,0,0,0,0,0,0,0,0,0,0,0,0,0,0,0,0,0,0,0,0,0,0,0,0,0,0,0,0,0,0,0,0,0,0,0,0,0,0,0,0,0,0,0,0,0,0,0,0,0,0,0,0,0.7455,0.7455,0,0.748,0.748,0.7481,0.742,0.7418,0.7416,0.7414,0.7446,0.7448,0.7451,0,0,0,0,0,0,0,0,0,0,0,0,0,0.7359,0.7361,0.7455,0.7455,0.7455,0.748,0.748,0.7481,0.742,0.7418,0.7415,0.7413,0.7445,0.7448,0.7451,0,0,0,0,0,0,0,0,0,0,0,0,0,0.7395,0.7362,0.7455,0.7428,0.7426,0.748,0.748,0.7481,0.7421,0.7418,0.7415,0.7412,0.7444,0.7448,0.7452,0.7535,0,0,0.7464,0.7466,0,0,0,0,0,0,0,0,0.7393,0.7398,0.7431,0.743,0.7427,0.7444,0.7458,0.7499,0.7421,0.7423,0.7414,0.7411,0.7448,0.7451,0.7463,0.7536,0.7538,0.7464,0.7467,0.7468,0.747,0,0,0,0,0,0,0,0.739,0.7397,0.7465,0.7432,0.743,0.7416,0.7418,0.7466,0.7452,0.7422,0.7418,0.7422,0.7446,0.7459,0.7463,0.7538,0.7464,0.7468,0.747,0.7472,0.7682,0.7685,0,0,0,0,0,0,0.739,0.7395,0.7464,0.7466,0.7402,0.7421,0.7422,0.7442,0.7451,0.7449,0.7424,0.7419,0.7454,0.7458,0.7464,0.7563,0.7468,0.7472,0.7474,0.7679,0.7683,0.7687,0,0,0,0,0,0,0.7389,0.7397,0.7463,0.7429,0.7436,0.7425,0.7447,0.7444,0.7456,0.7452,0.745,0.7439,0.7451,0.7458,0.7517,0.7563,0.7474,0.7478,0.7675,0.768,0.7685,0.776,0,0,0,0,0,0,0.7386,0.7397,0.7427,0.743,0.7438,0.7515,0.745,0.7446,0.7462,0.7456,0.7466,0.7465,0.745,0.7512,0.7521,0.7567,0.7481,0.7671,0.7678,0.7683,0.7754,0.7767,0.7779,0,0,0,0,0,0.7383,0.7448,0.7429,0.7437,0.7476,0.7517,0.7522,0.7502,0.7466,0.7498,0.7495,0.7464,0.7556,0.7518,0.7529,0.7576,0.7668,0.7676,0.7683,0.7748,0.7765,0.7778,0,0,0,0,0,0,0.7453,0.7448,0.7427,0.7494,0.7507,0.7507,0.7546,0.752,0.7544,0.7537,0.7513,0.7515,0.758,0.7584,0.7542,0.7657,0.7606,0.7616,0.7653,0.7668,0.768,0.7679,0.7484,0,0,0,0,0,0.7475,0.7508,0.7503,0.7564,0.757,0.7557,0.7575,0.7558,0.757,0.7576,0.7577,0.7592,0.7624,0.7646,0.7675,0.7754,0.7756,0.7791,0.7804,0.7814,0.7823,0.7866,0.7882,0.771,0.771,0.771,0,0,0.7524,0.7525,0.7548,0.7578,0.7585,0.7621,0.7562,0.7603,0.763,0.7582,0.7638,0.764,0.7655,0.7724,0.7755,0.773,0.7871,0.7823,0.7831,0.7835,0.7875,0.7891,0.7906,0.7715,0.7714,0.7714,0,0,0.7631,0.7634,0.7685,0.7694,0.7705,0.7696,0.7708,0.7713,0.7712,0.7767,0.7732,0.7765,0.782,0.7833,0.7846,0.7958,0.7931,0.7968,0.8034,0.8076,0.8089,0.8101,0.8142,0.8157,0.7977,0.7977,0.7978,0,0.769,0.7741,0.7716,0.7758,0.7773,0.773,0.7783,0.7793,0.7814,0.7827,0.7797,0.7866,0.7873,0.7945,0.7972,0.7984,0.7999,0.7968,0.8089,0.8101,0.8112,0.8151,0.8166,0.7982,0.7981,0.7981,0.798,0,0.7814,0.785,0.7891,0.791,0.793,0.7978,0.7961,0.7984,0.7966,0.796,0.8018,0.8024,0.8055,0.807,0.8054,0.8141,0.8125,0.8093,0.8041,0.8133,0.8169,0.8184,0.7988,0.7987,0.7985,0.7984,0,0,0.7966,0.7971,0.7986,0.7995,0.8004,0.8033,0.8079,0.8107,0.8128,0.8144,0.8184,0.8232,0.8202,0.8218,0.8202,0.8238,0.8328,0.8202,0.8202,0.8226,0.8426,0.8451,0.8468,0.831,0.8312,0.8315,0.8425,0,0.8073,0.815,0.8129,0.8208,0.8242,0.8201,0.8242,0.8253,0.825,0.8279,0.8275,0.831,0.8268,0.8277,0.8311,0.831,0.8368,0.8301,0.8348,0.835,0.8347,0.8487,0.8514,0.8618,0.8439,0.8441,0.8443,0,0.8207,0.8227,0.8309,0.8313,0.8326,0.8363,0.8387,0.8415,0.8428,0.8423,0.844,0.8417,0.8465,0.8412,0.8478,0.8433,0.8451,0.8454,0.8457,0.8462,0.8403,0.8497,0.865,0.8666,0.8465,0.8463,0.8462,0,0.8312,0.8359,0.8414,0.8423,0.8428,0.8455,0.846,0.8469,0.8487,0.8509,0.8521,0.8548,0.8564,0.8587,0.8573,0.8535,0.8642,0.8588,0.8641,0.8641,0.8666,0.8665,0.8826,0.8676,0.8676,0.8675,0.8675,0,0.8434,0.8486,0.8461,0.8495,0.8553,0.8528,0.8586,0.8586,0.8595,0.8629,0.8596,0.863,0.8608,0.8641,0.863,0.8688,0.8695,0.8693,0.869,0.8697,0.8697,0.8709,0.8702,0.8679,0.8678,0.8678,0.8677,0,0.8561,0.8546,0.8604,0.8604,0.8605,0.8648,0.8649,0.8682,0.8675,0.8719,0.8728,0.8719,0.8755,0.8742,0.8782,0.8775,0.8848,0.8835,0.8844,0.8841,0.8895,0.8891,0.907,0.9093,0.8927,0.8929,0.893,0,0.864,0.8679,0.8683,0.8703,0.8709,0.8742,0.876,0.8737,0.8758,0.8775,0.8806,0.8839,0.8865,0.8925,0.8923,0.8953,0.8941,0.9002,0.8946,0.8952,0.8944,0.8942,0.8947,0.9014,0.9016,0.9017,0.9019,0,0.8783,0.8774,0.88,0.8824,0.8846,0.8865,0.888,0.8899,0.8878,0.8903,0.8939,0.8958,0.8998,0.9032,0.9059,0.9065,0.904,0.9036,0.905,0.9058,0.9062,0.9062,0.8876,0.9032,0.9031,0.903,0.9029,0.9029,0.889,0.8923,0.893,0.8961,0.897,0.8986,0.9016,0.9013,0.9042,0.9071,0.9056,0.9099,0.9111,0.9144,0.9154,0.9188,0.9165,0.9185,0.919,0.9196,0.9203,0.9055,0.9193,0.9192,0.9192,0.9192,0.9191,0,0.9032,0.9035,0.9063,0.9085,0.911,0.9081,0.9097,0.912,0.9157,0.9169,0.9195,0.9237,0.9269,0.9269,0.93,0.9327,0.9316,0.9336,0.9335,0.9337,0.9222,0.9207,0.9345,0.9345,0.9345,0.9345,0.9345,0.9344,0.9109,0.9163,0.9155,0.9214,0.9217,0.9256,0.9268,0.9283,0.9293,0.934,0.9367,0.9366,0.9374,0.9405,0.9434,0.9433,0.9447,0.9472,0.9467,0.936,0.9345,0.933,0.9316,0.9475,0.9475,0.9579,0.958,0.9581]},{"header":{"parameterUnit":"m.s-1","parameterCategory":1,"la1":30.2991,"la2":30.254,"lo1":-89.0895,"lo2":-89.0444,"dy":0.0017,"dx":0.0017,"nx":28,"ny":28,"refTime":"2024-07-13T03:00:00:Z","depth":0,"parameterNumber":3,"parameterNumberName":"V-component_of_WINDS"},"data":[0,0,0,0,0,0,0,0,0,0,0,0,0,0,0,0,0,0,0,0,0,0,0,0,0,0,0,0,0,0,0,0,0,0,0,0,0,0,0,0,0,0,0,0,0,0,0,0,0,0,0,0,0,0,0,0,0,0,1.9941,1.9942,0,1.9993,1.9994,1.9994,2.0031,2.0031,2.0031,2.0032,2.0081,2.0082,2.0083,0,0,0,0,0,0,0,0,0,0,0,0,0,1.9868,1.9869,1.9941,1.9942,1.9943,1.9993,1.9994,1.9994,2.0031,2.0031,2.0032,2.0032,2.008,2.0081,2.0083,0,0,0,0,0,0,0,0,0,0,0,0,0,1.9907,1.9869,1.9941,1.9967,1.997,1.9993,1.9994,1.9995,2.0031,2.0031,2.0032,2.0032,2.008,2.0081,2.0083,2.0083,0,0,2.0087,2.0088,0,0,0,0,0,0,0,0,1.9905,1.991,1.9962,1.9965,1.9968,2.0006,1.9986,2.0024,2.0031,2.0007,2.0032,2.0032,2.0055,2.0059,2.0067,2.0085,2.0087,2.0088,2.0089,2.0089,2.009,0,0,0,0,0,0,0,1.9902,1.9908,1.9962,1.9963,1.9967,1.9974,1.998,1.9993,2.0028,2.001,2.0012,2.0018,2.0057,2.0066,2.0069,2.0088,2.0088,2.0089,2.009,2.009,2.0105,2.0104,0,0,0,0,0,0,1.9896,1.9905,1.996,1.9963,1.9937,1.9975,1.9982,1.9993,2.0028,2.0034,2.0018,2.002,2.0063,2.0067,2.0071,2.0071,2.0089,2.0091,2.0091,2.0105,2.0105,2.0104,0,0,0,0,0,0,1.9895,1.9901,1.9958,1.9935,1.9943,1.9976,1.9988,1.9994,2.0003,2.0034,2.004,2.0021,2.0063,2.0068,2.0079,2.0073,2.0091,2.0093,2.0106,2.0105,2.0105,2.0073,0,0,0,0,0,0,1.9892,1.99,1.9902,1.9935,1.9944,1.9968,1.9988,1.9995,2.0006,2.0009,2.0039,2.0044,2.0064,2.0077,2.0081,2.0076,2.0094,2.0107,2.0106,2.0105,2.0074,2.0071,2.0068,0,0,0,0,0,1.989,1.9891,1.9902,1.9909,1.9948,1.9967,1.9972,1.9997,2.0006,2.0007,2.0026,2.0043,2.0073,2.0077,2.0082,2.0078,2.0107,2.0106,2.0105,2.0076,2.0072,2.0068,0,0,0,0,0,0,1.9856,1.9896,1.9909,1.9921,1.9941,1.9973,1.9976,1.9992,2.0008,2.001,2.0038,2.0044,2.0051,2.0066,2.007,2.0078,2.0092,2.0092,2.0068,2.0065,2.0061,2.0057,2.0095,0,0,0,0,0,1.9851,1.9865,1.9898,1.9906,1.9915,1.9943,1.9953,1.997,1.999,1.9998,2.0019,2.0037,2.005,2.0058,2.0072,2.0077,2.0082,2.0075,2.0072,2.0069,2.0068,2.0068,2.0065,2.01,2.01,2.01,0,0,1.9839,1.9862,1.9869,1.99,1.9917,1.9928,1.995,1.9963,1.9971,2.0,2.0011,2.0026,2.0048,2.0054,2.0059,2.0066,2.006,2.0068,2.0065,2.0066,2.0067,2.0063,2.006,2.01,2.01,2.01,0,0,1.9823,1.9843,1.9851,1.9867,1.9892,1.991,1.9912,1.9942,1.9953,1.9965,1.9986,1.9995,2.0018,2.0032,2.0042,2.0027,2.0042,2.003,2.0013,2.0013,2.001,2.0008,2.0,1.9997,2.003,2.003,2.003,0,1.9805,1.9826,1.9852,1.9862,1.9874,1.9901,1.9906,1.992,1.9948,1.9954,1.9963,1.999,2.0007,2.0016,2.0012,2.002,2.002,2.0027,2.0009,2.0007,2.0005,1.9998,1.9995,2.0028,2.0028,2.0028,2.0028,0,1.9801,1.9814,1.9816,1.9843,1.9854,1.9862,1.9888,1.9895,1.991,1.9927,1.9936,1.9957,1.9974,1.9978,1.9993,1.9987,1.9991,2.0004,2.0019,1.9999,1.9993,1.9991,2.0026,2.0026,2.0027,2.0027,0,0,1.9768,1.9807,1.9807,1.9818,1.9846,1.9856,1.9863,1.9881,1.9886,1.9903,1.9908,1.9926,1.9937,1.9948,1.9964,1.9964,1.9947,1.9976,1.9977,1.9968,1.9939,1.9928,1.9925,1.9957,1.9957,1.9957,1.9937,0,1.9756,1.9773,1.9795,1.9803,1.9813,1.9837,1.9843,1.9859,1.9874,1.9884,1.9899,1.991,1.9926,1.9932,1.9933,1.9949,1.9941,1.9951,1.996,1.996,1.9953,1.9922,1.9912,1.9892,1.9935,1.9934,1.9934,0,1.9745,1.976,1.9769,1.9793,1.9798,1.9804,1.9819,1.9829,1.9847,1.9857,1.9868,1.9884,1.9891,1.9904,1.9911,1.9917,1.9922,1.993,1.9929,1.993,1.9945,1.9921,1.9887,1.9883,1.9931,1.9931,1.9931,0,1.9717,1.9741,1.9748,1.9757,1.9786,1.9788,1.98,1.9818,1.9826,1.9839,1.9843,1.9857,1.9864,1.9872,1.9891,1.99,1.9895,1.9911,1.9902,1.9901,1.9899,1.9899,1.9864,1.9905,1.9905,1.9905,1.9905,0,1.9701,1.9705,1.9736,1.9741,1.9745,1.9768,1.9771,1.9785,1.98,1.9805,1.9827,1.9831,1.9856,1.9863,1.9877,1.9879,1.9882,1.9889,1.9893,1.9887,1.9885,1.9889,1.9891,1.9904,1.9904,1.9904,1.9904,0,1.9672,1.9694,1.9703,1.9728,1.9734,1.9736,1.9756,1.976,1.9775,1.9781,1.9784,1.9807,1.9815,1.9835,1.9849,1.9858,1.9855,1.9863,1.985,1.9852,1.984,1.984,1.9806,1.9801,1.9846,1.9845,1.9845,0,1.9661,1.9664,1.9689,1.9694,1.9705,1.9714,1.9721,1.9743,1.975,1.9768,1.9768,1.9778,1.9788,1.9799,1.9816,1.9825,1.9832,1.9819,1.9834,1.9826,1.9829,1.9828,1.9827,1.9816,1.9815,1.9815,1.9814,0,1.9636,1.9645,1.9656,1.9669,1.9677,1.9689,1.9701,1.9703,1.9728,1.9734,1.9742,1.9749,1.9762,1.977,1.9782,1.9792,1.9806,1.9809,1.9807,1.9801,1.9792,1.9794,1.9839,1.981,1.9811,1.9811,1.9811,1.9811,1.9615,1.9617,1.9634,1.9644,1.9655,1.9665,1.9669,1.9683,1.9691,1.9703,1.9715,1.9722,1.9735,1.9752,1.976,1.9764,1.9772,1.9769,1.9768,1.9767,1.9763,1.9792,1.9766,1.9766,1.9766,1.9767,1.9767,0,1.959,1.9601,1.961,1.9625,1.9632,1.9645,1.9658,1.9662,1.9668,1.9679,1.9687,1.9695,1.9702,1.9718,1.9726,1.9726,1.9732,1.9727,1.9726,1.9728,1.9757,1.9757,1.9721,1.9721,1.9721,1.9721,1.9721,1.9721,1.9578,1.9582,1.9592,1.96,1.9611,1.9618,1.9624,1.9632,1.9641,1.9649,1.9655,1.9665,1.9677,1.9685,1.9691,1.9696,1.9697,1.9689,1.9695,1.9722,1.9726,1.973,1.973,1.9689,1.9689,1.9665,1.9665,1.9665]}]]